Location: Cudham
(51.3000°N, 0.0667°E)
Time: 15:04:10
(UTC+00:00)

Cosmos 1842 Rocket - Pass Details

Date: 19 May 2025
Orbit: 600 x 626 km, 82.5° (Epoch: 18 June)

Event Time Altitude Azimuth Distance (km) Brightness Sun altitude
Exits shadow 23:02:49 33° 197° (SSW) 1,010 4.2 -17.8°
Maximum altitude 23:04:41 81° 280° (W) 616 3.5 -17.8°
Drops below altitude 10° 23:09:01 10° 9° (N) 1,957 7.2 -18.0°
Sets 23:11:15 0° 10° (N) 2,866 8.3 -18.0°
